EN

Hourly Weather La Coruña

Today, 4 August, Wednesday

Time Temperature Precipitation Wind Pressure Humidity
00:00 +21°C° 1.6 mm 1 mps 710 mmHg 98%
01:00 +21°C° 0.2 mm 1 mps 709 mmHg 98%
02:00 +21°C° 0.2 mm 1 mps 709 mmHg 98%
03:00 +20°C° 0.2 mm 1 mps 708 mmHg 98%
04:00 +20°C° 0 mm 1 mps 708 mmHg 97%
05:00 +20°C° 0 mm 1 mps 708 mmHg 97%
06:00 +20°C° 0 mm 1 mps 708 mmHg 97%
07:00 +21°C° 0 mm 1 mps 709 mmHg 94%
08:00 +22°C° 0 mm 1 mps 709 mmHg 91%
09:00 +23°C° 0 mm 1 mps 709 mmHg 89%
10:00 +25°C° 0 mm 1 mps 709 mmHg 78%
11:00 +25°C° 0 mm 0 mps 709 mmHg 68%
12:00 +28°C° 0 mm 0 mps 709 mmHg 58%
13:00 +28°C° 0 mm 0 mps 709 mmHg 58%
14:00 +30°C° 0 mm 1 mps 708 mmHg 58%
15:00 +30°C° 0 mm 1 mps 708 mmHg 58%
16:00 +28°C° 0.1 mm 1 mps 708 mmHg 68%
17:00 +26°C° 0.1 mm 1 mps 708 mmHg 78%
18:00 +24°C° 0.1 mm 1 mps 707 mmHg 89%
19:00 +24°C° 0.3 mm 1 mps 708 mmHg 90%
20:00 +23°C° 0.3 mm 1 mps 708 mmHg 92%
21:00 +22°C° 0.3 mm 1 mps 709 mmHg 94%
22:00 +22°C° 0.7 mm 1 mps 709 mmHg 95%
23:00 +22°C° 0.7 mm 1 mps 709 mmHg 95%

Tomorrow, 5 August, Thursday

Time Temperature Precipitation Wind Pressure Humidity
00:00 +22°C° 0.7 mm 1 mps 709 mmHg 96%
01:00 +22°C° 0.4 mm 1 mps 709 mmHg 96%
02:00 +22°C° 0.4 mm 1 mps 709 mmHg 96%
03:00 +22°C° 0.4 mm 1 mps 708 mmHg 96%
04:00 +22°C° 0.1 mm 1 mps 709 mmHg 96%
05:00 +22°C° 0.1 mm 1 mps 709 mmHg 96%
06:00 +22°C° 0.1 mm 1 mps 709 mmHg 96%
07:00 +23°C° 0 mm 1 mps 710 mmHg 91%
08:00 +25°C° 0 mm 1 mps 710 mmHg 86%
09:00 +26°C° 0 mm 1 mps 710 mmHg 81%
10:00 +27°C° 0 mm 1 mps 710 mmHg 77%
11:00 +28°C° 0 mm 1 mps 710 mmHg 74%
12:00 +28°C° 0 mm 1 mps 709 mmHg 71%
13:00 +29°C° 0.8 mm 1 mps 709 mmHg 71%
14:00 +29°C° 0.8 mm 1 mps 708 mmHg 70%
15:00 +29°C° 0.8 mm 1 mps 708 mmHg 70%
16:00 +28°C° 0.5 mm 1 mps 708 mmHg 77%
17:00 +26°C° 0.5 mm 1 mps 708 mmHg 84%
18:00 +25°C° 0.5 mm 1 mps 708 mmHg 91%
19:00 +24°C° 1.2 mm 1 mps 708 mmHg 93%
20:00 +23°C° 1.2 mm 1 mps 708 mmHg 95%
21:00 +23°C° 1.2 mm 1 mps 709 mmHg 97%
22:00 +22°C° 1.7 mm 1 mps 709 mmHg 97%
23:00 +22°C° 1.7 mm 1 mps 709 mmHg 98%

Day after tomorrow, 6 August, Friday

Time Temperature Precipitation Wind Pressure Humidity
00:00 +22°C° 1.7 mm 1 mps 709 mmHg 98%
01:00 +22°C° 2.2 mm 1 mps 709 mmHg 98%
02:00 +22°C° 2.2 mm 1 mps 709 mmHg 99%
03:00 +22°C° 2.2 mm 1 mps 709 mmHg 99%
04:00 +22°C° 0.8 mm 1 mps 709 mmHg 99%
05:00 +20°C° 0.8 mm 0 mps 709 mmHg 99%
06:00 +20°C° 0.8 mm 0 mps 709 mmHg 98%
07:00 +21°C° 0.1 mm 0 mps 709 mmHg 94%
08:00 +24°C° 0.1 mm 1 mps 710 mmHg 89%
09:00 +25°C° 0.1 mm 1 mps 710 mmHg 85%
10:00 +26°C° 0.5 mm 1 mps 710 mmHg 81%
11:00 +27°C° 0.5 mm 1 mps 710 mmHg 78%
12:00 +28°C° 0.5 mm 1 mps 709 mmHg 75%
13:00 +28°C° 0.9 mm 1 mps 709 mmHg 77%
14:00 +28°C° 0.9 mm 1 mps 708 mmHg 79%
15:00 +27°C° 0.9 mm 1 mps 708 mmHg 82%
16:00 +26°C° 0.8 mm 1 mps 708 mmHg 86%
17:00 +25°C° 0.8 mm 1 mps 708 mmHg 89%
18:00 +22°C° 0.8 mm 0 mps 708 mmHg 93%
19:00 +22°C° 1.1 mm 0 mps 708 mmHg 94%
20:00 +21°C° 1.1 mm 0 mps 708 mmHg 96%
21:00 +20°C° 1.1 mm 0 mps 709 mmHg 97%
22:00 +20°C° 2 mm 0 mps 709 mmHg 97%
23:00 +22°C° 2 mm 1 mps 709 mmHg 98%

7 August, Saturday

Time Temperature Precipitation Wind Pressure Humidity
00:00 +22°C° 2 mm 1 mps 709 mmHg 98%
01:00 +22°C° 2.5 mm 1 mps 709 mmHg 98%
02:00 +22°C° 2.5 mm 1 mps 708 mmHg 98%
03:00 +22°C° 2.5 mm 1 mps 708 mmHg 98%
04:00 +22°C° 1.2 mm 1 mps 708 mmHg 98%
05:00 +22°C° 1.2 mm 1 mps 708 mmHg 98%
06:00 +22°C° 1.2 mm 1 mps 708 mmHg 98%
07:00 +23°C° 0.1 mm 1 mps 709 mmHg 92%
08:00 +24°C° 0.1 mm 1 mps 709 mmHg 87%
09:00 +26°C° 0.1 mm 1 mps 710 mmHg 82%
10:00 +27°C° 0.5 mm 1 mps 710 mmHg 79%
11:00 +27°C° 0.5 mm 1 mps 709 mmHg 77%
12:00 +28°C° 0.5 mm 1 mps 709 mmHg 74%
13:00 +28°C° 0.8 mm 1 mps 709 mmHg 75%
14:00 +28°C° 0.8 mm 1 mps 708 mmHg 76%
15:00 +28°C° 0.8 mm 1 mps 708 mmHg 77%
16:00 +27°C° 0.9 mm 1 mps 708 mmHg 82%
17:00 +25°C° 0.9 mm 1 mps 708 mmHg 88%
18:00 +22°C° 0.9 mm 0 mps 708 mmHg 93%
19:00 +21°C° 0.5 mm 0 mps 708 mmHg 94%
20:00 +21°C° 0.5 mm 0 mps 709 mmHg 95%
21:00 +20°C° 0.5 mm 0 mps 709 mmHg 95%
22:00 +20°C° 0.5 mm 0 mps 709 mmHg 96%
23:00 +20°C° 0.5 mm 0 mps 709 mmHg 96%

8 August, Sunday

Time Temperature Precipitation Wind Pressure Humidity
00:00 +20°C° 0.5 mm 0 mps 709 mmHg 96%
01:00 +19°C° 0.1 mm 0 mps 708 mmHg 96%
02:00 +19°C° 0.1 mm 0 mps 708 mmHg 96%
03:00 +19°C° 0.1 mm 0 mps 708 mmHg 96%
04:00 +19°C° 0.1 mm 0 mps 708 mmHg 96%
05:00 +21°C° 0.1 mm 1 mps 708 mmHg 97%
06:00 +21°C° 0.1 mm 1 mps 709 mmHg 97%
07:00 +22°C° 0.3 mm 1 mps 709 mmHg 93%
08:00 +24°C° 0.3 mm 1 mps 709 mmHg 89%
09:00 +25°C° 0.3 mm 1 mps 710 mmHg 85%
10:00 +26°C° 0.8 mm 1 mps 710 mmHg 85%
11:00 +26°C° 0.8 mm 1 mps 710 mmHg 84%
12:00 +27°C° 0.8 mm 1 mps 710 mmHg 83%
13:00 +26°C° 0.9 mm 1 mps 709 mmHg 86%
14:00 +26°C° 0.9 mm 1 mps 709 mmHg 88%
15:00 +25°C° 0.9 mm 1 mps 708 mmHg 91%
16:00 +25°C° 0.7 mm 1 mps 708 mmHg 92%
17:00 +24°C° 0.7 mm 1 mps 709 mmHg 93%
18:00 +23°C° 0.7 mm 1 mps 709 mmHg 95%
19:00 +21°C° 0.5 mm 0 mps 709 mmHg 95%
20:00 +21°C° 0.5 mm 0 mps 709 mmHg 96%
21:00 +20°C° 0.5 mm 0 mps 710 mmHg 96%
22:00 +20°C° 0.7 mm 0 mps 710 mmHg 96%
23:00 +20°C° 0.7 mm 0 mps 710 mmHg 96%

9 August, Monday

Time Temperature Precipitation Wind Pressure Humidity
00:00 +20°C° 0.7 mm 0 mps 710 mmHg 97%
01:00 +21°C° 0.7 mm 1 mps 709 mmHg 97%
02:00 +21°C° 0.7 mm 1 mps 709 mmHg 97%
03:00 +21°C° 0.7 mm 1 mps 709 mmHg 97%
04:00 +21°C° 0.5 mm 1 mps 709 mmHg 97%
05:00 +21°C° 0.5 mm 1 mps 709 mmHg 97%
06:00 +21°C° 0.5 mm 1 mps 709 mmHg 97%
07:00 +23°C° 0.1 mm 1 mps 709 mmHg 91%
08:00 +25°C° 0.1 mm 1 mps 710 mmHg 85%
09:00 +24°C° 0.1 mm 0 mps 710 mmHg 80%
10:00 +25°C° 0 mm 0 mps 710 mmHg 76%
11:00 +28°C° 0 mm 1 mps 710 mmHg 72%
12:00 +29°C° 0 mm 1 mps 710 mmHg 67%
13:00 +29°C° 0 mm 1 mps 709 mmHg 65%
14:00 +30°C° 0 mm 1 mps 709 mmHg 63%
15:00 +30°C° 0 mm 1 mps 708 mmHg 61%
16:00 +28°C° 0.5 mm 1 mps 708 mmHg 70%
17:00 +27°C° 0.5 mm 1 mps 708 mmHg 80%
18:00 +23°C° 0.5 mm 0 mps 708 mmHg 89%
19:00 +22°C° 1 mm 0 mps 708 mmHg 91%
20:00 +23°C° 1 mm 1 mps 709 mmHg 93%
21:00 +23°C° 1 mm 1 mps 709 mmHg 95%
22:00 +22°C° 0.2 mm 1 mps 709 mmHg 95%
23:00 +22°C° 0.2 mm 1 mps 709 mmHg 95%
Show more